Time,TemperatureF,DewpointF,PressureIn,WindDirection,WindDirectionDegrees,WindSpeedMPH,WindSpeedGustMPH,Humidity,HourlyPrecipIn,Conditions,Clouds,dailyrainin,SoftwareType,DateUTC
2013-06-29 00:32:00,64.0,61.0,29.64,NNE,28,2.0,4.0,91,0.00,,,0.00,,2013-06-29 04:32:00,
2013-06-29 00:41:00,64.0,61.0,29.64,NNE,28,2.0,4.0,91,0.00,,,0.00,,2013-06-29 04:41:00,
2013-06-29 00:51:00,64.0,63.0,29.63,NNE,30,3.0,6.0,95,0.01,,,0.00,,2013-06-29 04:51:00,
2013-06-29 01:01:00,64.0,63.0,29.63,NNE,30,3.0,6.0,95,0.01,,,0.00,,2013-06-29 05:01:00,
2013-06-29 01:11:00,64.0,63.0,29.63,NNE,30,3.0,6.0,95,0.01,,,0.00,,2013-06-29 05:11:00,
2013-06-29 01:21:00,64.0,63.0,29.63,NNE,30,3.0,6.0,95,0.01,,,0.00,,2013-06-29 05:21:00,
2013-06-29 01:31:00,64.0,63.0,29.63,NNE,30,3.0,6.0,95,0.01,,,0.01,,2013-06-29 05:31:00,
2013-06-29 01:42:00,64.0,62.0,29.63,NNE,18,2.0,5.0,94,0.00,,,0.01,,2013-06-29 05:42:00,
2013-06-29 01:52:00,64.0,62.0,29.63,NNE,18,3.0,5.0,94,0.00,,,0.01,,2013-06-29 05:52:00,
2013-06-29 02:01:00,64.0,63.0,29.63,NNE,18,2.0,3.0,95,0.00,,,0.01,,2013-06-29 06:01:00,
2013-06-29 02:12:00,64.0,63.0,29.63,NNE,18,2.0,3.0,95,0.00,,,0.01,,2013-06-29 06:12:00,
2013-06-29 02:22:00,63.0,61.0,29.63,NNE,18,2.0,3.0,94,0.00,,,0.01,,2013-06-29 06:22:00,
2013-06-29 03:02:00,63.0,62.0,29.62,NNE,18,3.0,5.0,95,0.00,,,0.01,,2013-06-29 07:02:00,
2013-06-29 03:33:00,62.0,61.0,29.62,North,4,2.0,4.0,95,0.00,,,0.01,,2013-06-29 07:33:00,
2013-06-29 03:43:00,62.0,61.0,29.62,North,4,2.0,4.0,95,0.00,,,0.01,,2013-06-29 07:43:00,
2013-06-29 03:53:00,63.0,61.0,29.63,NNW,347,3.0,5.0,94,0.00,,,0.01,,2013-06-29 07:53:00,
2013-06-29 04:01:00,63.0,62.0,29.62,NNW,348,3.0,5.0,95,0.00,,,0.01,,2013-06-29 08:01:00,
2013-06-29 04:12:00,63.0,62.0,29.62,NNW,348,3.0,5.0,95,0.00,,,0.01,,2013-06-29 08:12:00,
2013-06-29 04:33:00,62.0,60.0,29.62,North,8,5.0,8.0,94,0.00,,,0.01,,2013-06-29 08:33:00,
2013-06-29 04:43:00,62.0,60.0,29.63,NNE,13,3.0,8.0,94,0.00,,,0.01,,2013-06-29 08:43:00,
2013-06-29 04:52:00,62.0,60.0,29.62,NNE,22,4.0,8.0,94,0.00,,,0.01,,2013-06-29 08:52:00,
2013-06-29 05:02:00,62.0,60.0,29.62,NNE,22,4.0,8.0,94,0.00,,,0.01,,2013-06-29 09:02:00,
2013-06-29 05:12:00,62.0,60.0,29.63,NNE,21,3.0,7.0,93,0.00,,,0.01,,2013-06-29 09:12:00,
2013-06-29 05:42:00,61.0,59.0,29.64,NNE,28,5.0,7.0,94,0.00,,,0.01,,2013-06-29 09:42:00,
2013-06-29 05:53:00,61.0,59.0,29.64,NNE,33,5.0,6.0,93,0.00,,,0.01,,2013-06-29 09:53:00,
2013-06-29 06:01:00,61.0,59.0,29.64,NE,36,4.0,8.0,92,0.01,,,0.01,,2013-06-29 10:01:00,
2013-06-29 06:11:00,61.0,58.0,29.64,NNE,15,3.0,8.0,91,0.01,,,0.02,,2013-06-29 10:11:00,
2013-06-29 06:22:00,61.0,58.0,29.64,NNE,30,3.0,8.0,91,0.01,,,0.02,,2013-06-29 10:22:00,
2013-06-29 06:33:00,61.0,59.0,29.65,NNE,31,1.0,5.0,92,0.01,,,0.02,,2013-06-29 10:33:00,
2013-06-29 06:43:00,60.0,58.0,29.65,North,5,4.0,5.0,92,0.01,,,0.02,,2013-06-29 10:43:00,
2013-06-29 06:52:00,60.0,57.0,29.65,NE,38,2.0,4.0,91,0.01,,,0.02,,2013-06-29 10:52:00,
2013-06-29 07:02:00,60.0,57.0,29.65,NE,38,3.0,4.0,91,0.01,,,0.02,,2013-06-29 11:02:00,
2013-06-29 07:11:00,60.0,57.0,29.65,North,7,3.0,5.0,91,0.01,,,0.02,,2013-06-29 11:11:00,
2013-06-29 07:23:00,60.0,57.0,29.65,North,7,3.0,5.0,91,0.01,,,0.02,,2013-06-29 11:23:00,
2013-06-29 07:33:00,60.0,57.0,29.66,NNE,18,5.0,6.0,90,0.00,,,0.02,,2013-06-29 11:33:00,
2013-06-29 07:43:00,60.0,56.0,29.67,NE,46,4.0,8.0,88,0.00,,,0.02,,2013-06-29 11:43:00,
2013-06-29 07:53:00,60.0,57.0,29.67,NNE,26,2.0,3.0,90,0.00,,,0.02,,2013-06-29 11:53:00,
2013-06-29 08:02:00,60.0,57.0,29.67,North,0,3.0,4.0,90,0.00,,,0.02,,2013-06-29 12:02:00,
2013-06-29 08:34:00,61.0,57.0,29.67,North,1,2.0,8.0,87,0.00,,,0.02,,2013-06-29 12:34:00,
2013-06-29 08:43:00,61.0,57.0,29.68,NNE,28,3.0,8.0,86,0.00,,,0.02,,2013-06-29 12:43:00,
2013-06-29 08:53:00,61.0,57.0,29.67,NNE,30,3.0,8.0,86,0.00,,,0.02,,2013-06-29 12:53:00,
2013-06-29 09:11:00,61.0,57.0,29.67,NNE,13,3.0,6.0,86,0.00,,,0.02,,2013-06-29 13:11:00,
2013-06-29 09:43:00,63.0,58.0,29.68,North,1,3.0,7.0,83,0.00,,,0.02,,2013-06-29 13:43:00,
2013-06-29 10:02:00,64.0,58.0,29.69,NNE,26,6.0,9.0,82,0.00,,,0.02,,2013-06-29 14:02:00,
2013-06-29 10:23:00,64.0,58.0,29.69,NNE,22,3.0,9.0,81,0.00,,,0.02,,2013-06-29 14:23:00,
2013-06-29 10:44:00,64.0,58.0,29.68,NE,39,7.0,8.0,80,0.00,,,0.02,,2013-06-29 14:44:00,
2013-06-29 10:53:00,65.0,59.0,29.68,North,350,8.0,8.0,80,0.00,,,0.02,,2013-06-29 14:53:00,
2013-06-29 11:02:00,65.0,59.0,29.68,North,350,8.0,8.0,80,0.00,,,0.02,,2013-06-29 15:02:00,
2013-06-29 11:11:00,66.0,59.0,29.68,NNE,18,4.0,12.0,77,0.00,,,0.02,,2013-06-29 15:11:00,
2013-06-29 11:22:00,66.0,59.0,29.68,NE,42,3.0,12.0,77,0.00,,,0.02,,2013-06-29 15:22:00,
2013-06-29 11:33:00,67.0,60.0,29.68,NE,44,3.0,10.0,77,0.00,,,0.02,,2013-06-29 15:33:00,
2013-06-29 11:42:00,67.0,58.0,29.68,NNE,28,6.0,10.0,74,0.00,,,0.02,,2013-06-29 15:42:00,
2013-06-29 11:53:00,67.0,58.0,29.69,NNE,14,3.0,11.0,73,0.00,,,0.02,,2013-06-29 15:53:00,
2013-06-29 12:02:00,67.0,58.0,29.68,NNE,22,7.0,11.0,72,0.00,,,0.02,,2013-06-29 16:02:00,
2013-06-29 12:12:00,67.0,58.0,29.69,NNE,24,6.0,11.0,73,0.00,,,0.02,,2013-06-29 16:12:00,
2013-06-29 12:22:00,67.0,58.0,29.69,NNE,24,6.0,11.0,73,0.00,,,0.02,,2013-06-29 16:22:00,
2013-06-29 12:33:00,67.0,58.0,29.69,NNE,24,6.0,11.0,73,0.00,,,0.02,,2013-06-29 16:33:00,
2013-06-29 12:43:00,67.0,58.0,29.70,North,0,3.0,10.0,72,0.00,,,0.02,,2013-06-29 16:43:00,
2013-06-29 12:53:00,67.0,58.0,29.70,North,0,3.0,10.0,72,0.00,,,0.02,,2013-06-29 16:53:00,
2013-06-29 13:02:00,68.0,58.0,29.70,NNE,17,3.0,10.0,71,0.00,,,0.02,,2013-06-29 17:02:00,
2013-06-29 13:12:00,67.0,57.0,29.70,NNE,30,8.0,10.0,71,0.00,,,0.02,,2013-06-29 17:12:00,
2013-06-29 13:23:00,68.0,59.0,29.70,East,79,3.0,10.0,73,0.00,,,0.02,,2013-06-29 17:23:00,
2013-06-29 13:34:00,68.0,59.0,29.70,NNE,16,3.0,9.0,72,0.00,,,0.02,,2013-06-29 17:34:00,
2013-06-29 13:42:00,69.0,59.0,29.70,ENE,63,6.0,9.0,71,0.00,,,0.02,,2013-06-29 17:42:00,
2013-06-29 13:52:00,69.0,59.0,29.70,North,350,4.0,10.0,71,0.00,,,0.02,,2013-06-29 17:52:00,
2013-06-29 14:02:00,69.0,59.0,29.70,North,350,4.0,10.0,71,0.00,,,0.02,,2013-06-29 18:02:00,
2013-06-29 14:12:00,68.0,59.0,29.70,North,7,7.0,11.0,72,0.00,,,0.02,,2013-06-29 18:12:00,
2013-06-29 14:22:00,68.0,59.0,29.70,North,357,5.0,12.0,72,0.00,,,0.02,,2013-06-29 18:22:00,
2013-06-29 14:34:00,69.0,60.0,29.70,North,353,6.0,12.0,73,0.00,,,0.02,,2013-06-29 18:34:00,
2013-06-29 14:43:00,69.0,60.0,29.70,North,353,6.0,12.0,73,0.00,,,0.02,,2013-06-29 18:43:00,
2013-06-29 14:53:00,69.0,60.0,29.71,North,4,4.0,10.0,72,0.00,,,0.02,,2013-06-29 18:53:00,
2013-06-29 15:01:00,70.0,60.0,29.70,NNW,346,5.0,11.0,71,0.00,,,0.02,,2013-06-29 19:01:00,
2013-06-29 15:12:00,71.0,61.0,29.70,North,349,4.0,13.0,70,0.00,,,0.02,,2013-06-29 19:12:00,
2013-06-29 15:22:00,71.0,60.0,29.71,NNE,30,10.0,11.0,69,0.00,,,0.02,,2013-06-29 19:22:00,
2013-06-29 15:34:00,71.0,60.0,29.71,NNE,14,4.0,11.0,68,0.00,,,0.02,,2013-06-29 19:34:00,
2013-06-29 15:43:00,72.0,61.0,29.71,NE,35,4.0,11.0,68,0.00,,,0.02,,2013-06-29 19:43:00,
2013-06-29 15:54:00,72.0,60.0,29.71,NNE,18,12.0,12.0,66,0.00,,,0.02,,2013-06-29 19:54:00,
2013-06-29 16:02:00,72.0,60.0,29.71,NNE,18,12.0,12.0,66,0.00,,,0.02,,2013-06-29 20:02:00,
2013-06-29 16:12:00,72.0,60.0,29.71,NNE,20,7.0,12.0,67,0.00,,,0.02,,2013-06-29 20:12:00,
2013-06-29 16:23:00,72.0,60.0,29.71,NNE,27,10.0,10.0,65,0.00,,,0.02,,2013-06-29 20:23:00,
2013-06-29 16:33:00,73.0,61.0,29.71,North,10,9.0,10.0,65,0.00,,,0.02,,2013-06-29 20:33:00,
2013-06-29 16:43:00,72.0,61.0,29.72,North,353,5.0,10.0,69,0.00,,,0.02,,2013-06-29 20:43:00,
2013-06-29 16:52:00,73.0,61.0,29.72,NNE,30,8.0,12.0,65,0.00,,,0.02,,2013-06-29 20:52:00,
2013-06-29 17:02:00,73.0,61.0,29.72,NNE,30,8.0,12.0,65,0.00,,,0.02,,2013-06-29 21:02:00,
2013-06-29 17:11:00,74.0,61.0,29.73,NNE,23,4.0,12.0,65,0.00,,,0.02,,2013-06-29 21:11:00,
2013-06-29 17:22:00,73.0,61.0,29.73,NE,37,7.0,13.0,65,0.00,,,0.02,,2013-06-29 21:22:00,
2013-06-29 17:32:00,73.0,61.0,29.73,NNE,28,8.0,13.0,65,0.00,,,0.02,,2013-06-29 21:32:00,
2013-06-29 17:42:00,73.0,61.0,29.73,NNE,25,4.0,13.0,66,0.00,,,0.02,,2013-06-29 21:42:00,
2013-06-29 17:52:00,73.0,60.0,29.74,NNE,28,10.0,10.0,64,0.00,,,0.02,,2013-06-29 21:52:00,
2013-06-29 18:01:00,73.0,61.0,29.73,NNE,13,3.0,13.0,66,0.00,,,0.02,,2013-06-29 22:01:00,
2013-06-29 18:11:00,73.0,60.0,29.73,NNE,17,3.0,13.0,63,0.00,,,0.02,,2013-06-29 22:11:00,
2013-06-29 18:21:00,73.0,60.0,29.73,NNE,26,3.0,7.0,63,0.00,,,0.02,,2013-06-29 22:21:00,
2013-06-29 18:33:00,73.0,59.0,29.73,North,5,6.0,9.0,61,0.00,,,0.02,,2013-06-29 22:33:00,
2013-06-29 18:43:00,73.0,61.0,29.74,North,350,7.0,9.0,66,0.00,,,0.02,,2013-06-29 22:43:00,
2013-06-29 18:53:00,72.0,60.0,29.74,North,352,7.0,12.0,66,0.00,,,0.02,,2013-06-29 22:53:00,
2013-06-29 19:02:00,72.0,60.0,29.75,North,354,6.0,12.0,67,0.00,,,0.02,,2013-06-29 23:02:00,
2013-06-29 19:12:00,71.0,60.0,29.75,North,358,4.0,12.0,69,0.00,,,0.02,,2013-06-29 23:12:00,
2013-06-29 19:23:00,71.0,60.0,29.75,NNW,336,6.0,10.0,69,0.00,,,0.02,,2013-06-29 23:23:00,
2013-06-29 19:34:00,71.0,60.0,29.75,North,351,2.0,10.0,69,0.00,,,0.02,,2013-06-29 23:34:00,
2013-06-29 19:43:00,71.0,60.0,29.75,North,359,7.0,10.0,69,0.00,,,0.02,,2013-06-29 23:43:00,
2013-06-29 19:52:00,71.0,60.0,29.75,North,356,3.0,9.0,69,0.00,,,0.02,,2013-06-29 23:52:00,
2013-06-29 20:02:00,70.0,59.0,29.76,NNW,336,4.0,10.0,69,0.00,,,0.02,,2013-06-30 00:02:00,
2013-06-29 20:12:00,70.0,59.0,29.77,North,358,10.0,10.0,69,0.00,,,0.02,,2013-06-30 00:12:00,
2013-06-29 20:22:00,69.0,59.0,29.77,North,0,4.0,9.0,71,0.00,,,0.02,,2013-06-30 00:22:00,
2013-06-29 20:33:00,69.0,59.0,29.77,North,358,3.0,9.0,71,0.00,,,0.02,,2013-06-30 00:33:00,
2013-06-29 20:43:00,69.0,59.0,29.77,NNW,344,3.0,9.0,70,0.00,,,0.02,,2013-06-30 00:43:00,
2013-06-29 20:52:00,69.0,59.0,29.77,NNW,344,3.0,9.0,70,0.00,,,0.02,,2013-06-30 00:52:00,
2013-06-29 21:01:00,69.0,59.0,29.77,NNW,344,3.0,9.0,70,0.00,,,0.02,,2013-06-30 01:01:00,
2013-06-29 21:11:00,69.0,59.0,29.77,NNW,344,3.0,9.0,70,0.00,,,0.02,,2013-06-30 01:11:00,
2013-06-29 21:22:00,68.0,59.0,29.78,North,352,3.0,7.0,73,0.00,,,0.02,,2013-06-30 01:22:00,
2013-06-29 21:33:00,68.0,59.0,29.78,North,352,3.0,7.0,73,0.00,,,0.02,,2013-06-30 01:33:00,
2013-06-29 21:44:00,68.0,59.0,29.78,North,352,3.0,7.0,73,0.00,,,0.02,,2013-06-30 01:44:00,
2013-06-29 21:53:00,67.0,59.0,29.78,North,359,2.0,6.0,76,0.00,,,0.02,,2013-06-30 01:53:00,
2013-06-29 22:02:00,66.0,58.0,29.78,North,357,3.0,6.0,76,0.00,,,0.02,,2013-06-30 02:02:00,
2013-06-29 22:11:00,66.0,58.0,29.79,North,0,3.0,6.0,75,0.00,,,0.02,,2013-06-30 02:11:00,
2013-06-29 22:24:00,66.0,58.0,29.79,North,0,2.0,3.0,76,0.00,,,0.02,,2013-06-30 02:24:00,
2013-06-29 22:34:00,66.0,59.0,29.79,North,0,3.0,3.0,77,0.00,,,0.02,,2013-06-30 02:34:00,
2013-06-29 22:43:00,65.0,58.0,29.80,North,0,4.0,4.0,77,0.00,,,0.02,,2013-06-30 02:43:00,
2013-06-29 22:53:00,65.0,57.0,29.80,North,355,3.0,4.0,76,0.00,,,0.02,,2013-06-30 02:53:00,
2013-06-29 23:01:00,65.0,56.0,29.80,North,2,3.0,6.0,74,0.00,,,0.02,,2013-06-30 03:01:00,
2013-06-29 23:12:00,65.0,56.0,29.80,North,0,3.0,6.0,74,0.00,,,0.02,,2013-06-30 03:12:00,
2013-06-29 23:23:00,65.0,57.0,29.80,NNW,344,4.0,6.0,75,0.00,,,0.02,,2013-06-30 03:23:00,
2013-06-29 23:33:00,65.0,56.0,29.80,North,358,3.0,6.0,73,0.00,,,0.02,,2013-06-30 03:33:00,
2013-06-29 23:43:00,65.0,56.0,29.81,NW,315,3.0,7.0,73,0.00,,,0.02,,2013-06-30 03:43:00,
2013-06-29 23:53:00,65.0,56.0,29.81,North,351,7.0,7.0,73,0.00,,,0.02,,2013-06-30 03:53:00,